Printer-friendly version

IAU Minor Planet Center

Minor Planet Center

MPEC 2005-E60 : 2005 EK94

The following Minor Planet Electronic Circular may be linked-to from your own Web pages, but must not otherwise be redistributed electronically.


Read MPEC 2005-E59 Read MPEC 2005-E61


M.P.E.C. 2005-E60                                Issued 2005 Mar. 11, 14:36 UT

     The Minor Planet Electronic Circulars contain information on unusual
         minor planets and routine data on comets.  They are published
   on behalf of Commission 20 of the International Astronomical Union by the
          Minor Planet Center, Smithsonian Astrophysical Observatory,
                          Cambridge, MA 02138, U.S.A.

                  Supported in part by the Brinson Foundation
             Prepared using the Tamkin Foundation Computer Network

                              MPC@CFA.HARVARD.EDU
          URL http://cfa-www.harvard.edu/iau/mpc.html  ISSN 1523-6714

                                   2005 EK94

Observations:
     K05E94K* C2005 03 09.41224 14 13 26.88 +28 07 13.8          19.5 R EE060703
     K05E94K  C2005 03 09.42010 14 13 27.74 +28 07 26.5          19.4 R EE060703
     K05E94K  C2005 03 09.42797 14 13 28.58 +28 07 41.3          19.4 R EE060703
     K05E94K  C2005 03 09.43587 14 13 29.44 +28 07 53.6          19.5 R EE060703
     K05E94K  C2005 03 10.29841 14 15 07.77 +28 32 07.0          19.6 R EE060651
     K05E94K  C2005 03 10.30000 14 15 07.97 +28 32 10.5          19.6 R EE060651
     K05E94K  C2005 03 10.30300 14 15 08.28 +28 32 14.9          19.6 R EE060651
     K05E94K  C2005 03 10.42654 14 15 21.53 +28 35 46.7          19.2 R EE060G96
     K05E94K  C2005 03 10.43422 14 15 22.36 +28 35 59.9          19.2 R EE060G96
     K05E94K  C2005 03 10.44185 14 15 23.15 +28 36 12.7          18.9 R EE060G96
     K05E94K  C2005 03 10.44953 14 15 23.98 +28 36 25.8          18.9 R EE060G96
     K05E94K  C2005 03 11.04622 14 16 32.21 +28 53 20.9          19.5 V EE060167
     K05E94K  C2005 03 11.04851 14 16 32.40 +28 53 25.2          19.7 V EE060167
     K05E94K  C2005 03 11.05159 14 16 32.71 +28 53 30.0          19.5 V EE060167
     K05E94K  C2005 03 11.05353 14 16 32.90 +28 53 33.2          19.6 V EE060167
     K05E94K  C2005 03 11.42900 14 17 15.35 +29 04 23.7          19.4 R EE060651
     K05E94K  C2005 03 11.42925 14 17 15.35 +29 04 23.7          19.0 R EE060G96
     K05E94K  C2005 03 11.43054 14 17 15.49 +29 04 26.4          19.4 R EE060651
     K05E94K  C2005 03 11.43192 14 17 15.64 +29 04 28.7          19.5 R EE060651
     K05E94K  C2005 03 11.43714 14 17 16.20 +29 04 37.1          19.1 R EE060G96
     K05E94K  C2005 03 11.44505 14 17 17.04 +29 04 51.0          18.9 R EE060G96
     K05E94K  C2005 03 11.45295 14 17 17.89 +29 05 04.2          18.6 R EE060G96

Observer details:
167 Bulach Observatory.  Observers S. Meister, A. Schweizer.  Measurer
    S. Meister.  0.5-m f/5 Newtonian reflector + CCD.
651 Grasslands Observatory, Tucson.  Observer J. E. McGaha.  0.62-m f/5.1
    Newtonian reflector + CCD.
703 Catalina Sky Survey.  Observer R. Hill.  Measurers E. C. Beshore,
    C. M. Casey, E. J. Christensen, G. J. Garradd, R. E. Hill, S. M. Larson,
    R. H. McNaught.  0.68-m Schmidt + CCD.
G96 Mt. Lemmon Survey.  Observer E. J. Christensen.  Measurers E. C. Beshore,
    C. M. Casey, E. J. Christensen, G. J. Garradd, R. E. Hill, S. M. Larson,
    R. H. McNaught.  1.5-m reflector + CCD.

Orbital elements:
2005 EK94
Epoch 2005 Feb. 19.0 TT = JDT 2453420.5                 MPC
M 321.68285              (2000.0)            P               Q
n   0.36135523     Peri.  156.55938     -0.18569073     +0.95381378
a   1.9521499      Node   102.06723     -0.93541618     -0.09801311
e   0.4759510      Incl.   13.97317     -0.30085797     -0.28395900
P   2.73           H   19.0           G   0.15
From 22 observations 2005 Mar. 9-11.

Ephemeris:
2005 EK94                a,e,i = 1.95, 0.48, 14                  q = 1.0230
Date    TT    R. A. (2000) Decl.     Delta      r     Elong.  Phase     V
2005 03 11    14 16.44   +28 52.1    0.512    1.391   132.2    31.9    19.6
2005 03 21    14 35.88   +33 53.7    0.442    1.326   130.3    34.9    19.3
2005 03 31    14 57.06   +39 15.0    0.383    1.264   126.1    39.7    19.0
2005 04 10    15 21.48   +44 35.0    0.334    1.205   120.2    45.9    18.8
2005 04 20    15 52.02   +49 28.4    0.289    1.151   113.6    53.1    18.6
2005 04 30    16 33.80   +53 30.1    0.248    1.105   106.7    60.8    18.4
2005 05 10    17 34.09   +55 57.5    0.209    1.067   100.3    68.6    18.2
2005 05 20    18 59.15   +55 02.5    0.172    1.040    94.6    75.9    17.9
2005 05 30    20 39.54   +47 23.0    0.142    1.025    90.7    81.3    17.7
2005 06 09    22 07.82   +30 48.7    0.127    1.024    90.5    82.4    17.4
2005 06 19    23 10.62   +10 01.0    0.133    1.036    94.9    77.7    17.4
2005 06 29    23 52.01   -07 18.7    0.157    1.060   102.0    69.7    17.6
2005 07 09    00 17.82   -19 26.8    0.192    1.096   109.5    60.9    17.8
2005 07 19    00 31.56   -27 55.8    0.232    1.141   117.1    52.4    18.0
2005 07 29    00 35.22   -34 03.9    0.276    1.193   124.5    44.5    18.3
2005 08 08    00 29.97   -38 29.3    0.323    1.251   131.4    37.4    18.5
2005 08 18    00 17.77   -41 19.6    0.375    1.313   137.2    31.6    18.8
2005 08 28    00 01.72   -42 37.5    0.436    1.377   141.1    27.4    19.1
2005 09 07    23 45.30   -42 30.2    0.507    1.443   142.4    25.2    19.5
2005 09 17    23 31.62   -41 12.9    0.589    1.509   141.1    24.7    19.9
2005 09 27    23 22.28   -39 07.3    0.683    1.576   137.6    25.4    20.3
2005 10 07    23 17.51   -36 32.0    0.791    1.642   132.7    26.6    20.8
2005 10 17    23 16.93   -33 41.2    0.910    1.707   127.1    27.8    21.2
2005 10 27    23 19.76   -30 44.7    1.040    1.771   121.1    28.7    21.6
2005 11 06    23 25.29   -27 47.9    1.181    1.834   114.9    29.4    22.0

Timothy B. Spahr             (C) Copyright 2005 MPC           M.P.E.C. 2005-E60

Read MPEC 2005-E59 Read MPEC 2005-E61


Our Web policy. Index to the CBAT/MPC/ICQ pages.


Valid HTML 4.01!